Regional Weather Roundup
Issued by NWS

Home | Current Version | Previous Version | Graphics & Text | Print | Product List | Glossary On
Versions: 1 2 3 4 5 6 7 8 9 10 11 12 13 14 15 16 17 18 19 20 21 22 23 24 25 26 27 28
000
ASUS45 KPSR 090610
RWRAZ

ARIZONA HOURLY REGIONAL WEATHER ROUNDUP
NATIONAL WEATHER SERVICE PHOENIX AZ
1100 PM MST THU DEC 08 2016

NOTE: FAIR INDICATES FEW OR NO CLOUDS BELOW 12,000 FEET WITH NO
SIGNIFICANT WEATHER AND/OR OBSTRUCTIONS TO VISIBILITY.

AZZ001>003-036-090700-
NORTHWEST ARIZONA

CITY           SKY/WX    TMP DP  RH WIND       PRES   REMARKS
BULLHEAD CITY  CLOUDY    55  12  18 NE13      30.25S
KINGMAN        CLOUDY    45  24  43 E6        30.26S
6HR MIN TEMP:  40; 6HR MAX TEMP:  52;

$$

AZZ004>008-015-016-018-090700-
NORTH CENTRAL ARIZONA

CITY           SKY/WX    TMP DP  RH WIND       PRES   REMARKS
GRAND CANYON   PTCLDY    27  24  89 CALM      30.31S
6HR MIN TEMP:  27; 6HR MAX TEMP:  42;

WILLIAMS       CLEAR     32  27  80 S7        30.31S WCI  26
PRESCOTT       CLEAR     35  30  82 S8        30.29S WCI  29
6HR MIN TEMP:  34; 6HR MAX TEMP:  51;

FLAGSTAFF      CLEAR     27  23  85 CALM      30.31S
6HR MIN TEMP:  26; 6HR MAX TEMP:  39;

PAYSON         CLEAR     39  32  75 CALM      30.34S
PAGE           PTCLDY    33   8  35 W3        30.29R
6HR MIN TEMP:  33; 6HR MAX TEMP:  40;

$$

AZZ009>014-017-090700-
NORTHEAST ARIZONA

CITY           SKY/WX    TMP DP  RH WIND       PRES   REMARKS
WINSLOW        CLEAR     28  17  63 E3        30.29S
6HR MIN TEMP:  28; 6HR MAX TEMP:  47;

SAINT JOHNS    CLEAR     30  23  75 S7        30.29R WCI  23
6HR MIN TEMP:  30; 6HR MAX TEMP:  49;

WINDOW ROCK    CLEAR     23  16  74 CALM      30.30S
6HR MIN TEMP:  20; 6HR MAX TEMP:  42;

SHOW LOW       CLEAR     36  27  69 S15       30.32R WCI  26
$$

AZZ023-090700-
GREATER PHOENIX AREA

CITY           SKY/WX    TMP DP  RH WIND       PRES   REMARKS
PHOENIX        CLEAR     53  41  63 SW6       30.21R
6HR MIN TEMP:  52; 6HR MAX TEMP:  66;

BUCKEYE        CLEAR     48  37  66 N8        30.24R
LUKE AFB       CLEAR     51  39  62 N3        30.21R
6HR MIN TEMP:  51; 6HR MAX TEMP:  65;

DEER VALLEY    CLEAR     50  39  66 N3        30.21S
6HR MIN TEMP:  50; 6HR MAX TEMP:  64;

SCOTTSDALE     CLEAR     51  41  68 CALM      30.23S
6HR MIN TEMP:  51; 6HR MAX TEMP:  65;

MESA-GATEWAY   CLEAR     48  37  66 CALM      30.24R
$$

AZZ027-028-090700-
SOUTHWEST MARICOPA COUNTY AND PINAL COUNTY

CITY           SKY/WX    TMP DP  RH WIND       PRES   REMARKS
CASA GRANDE    NOT AVBL
GILA BEND      FAIR      50  32  49 SE10      30.22S
6HR MIN TEMP:  50; 6HR MAX TEMP:  65;

$$

AZZ503-504-507>509-090700-
SOUTHEAST ARIZONA

CITY           SKY/WX    TMP DP  RH WIND       PRES   REMARKS
TUCSON         CLEAR     50  35  56 S3        30.27R
6HR MIN TEMP:  48; 6HR MAX TEMP:  66;

DAVIS-MONTHAN  CLEAR     44  35  68 SE8       30.26R
6HR MIN TEMP:  44; 6HR MAX TEMP:  63;

NOGALES        CLEAR     40  26  57 E5        30.26R
6HR MIN TEMP:  40; 6HR MAX TEMP:  64;

SIERRA VISTA   CLEAR     44  31  61 VRB2      30.30R
6HR MIN TEMP:  43; 6HR MAX TEMP:  60;

DOUGLAS        CLEAR     39  32  76 N8        30.29R WCI  33
6HR MIN TEMP:  37; 6HR MAX TEMP:  63;

SAFFORD        CLEAR     45  32  60 SE9       30.32R
6HR MIN TEMP:  45; 6HR MAX TEMP:  60;

$$

AZZ020-021-025-026-031-090700-
SOUTHWEST ARIZONA

CITY           SKY/WX    TMP DP  RH WIND       PRES   REMARKS
YUMA           CLEAR     55  18  23 NE3       30.22S
6HR MIN TEMP:  53; 6HR MAX TEMP:  68;

$$

CAZ031-033-041-043-047-048-061-090700-
SOUTHERN CALIFORNIA

CITY           SKY/WX    TMP DP  RH WIND       PRES   REMARKS
DOWNTOWN L.A.  PTCLDY    56  49  77 CALM      30.25R
6HR MIN TEMP:  56; 6HR MAX TEMP:  63;

L.A. AIRPORT   PTCLDY    58  53  84 NE3       30.25S
6HR MIN TEMP:  56; 6HR MAX TEMP:  61;

SAN DIEGO      PTCLDY    57  51  80 CALM      30.29R
6HR MIN TEMP:  57; 6HR MAX TEMP:  63;

BURBANK        PTCLDY    54  43  66 NW5       30.25S
6HR MIN TEMP:  53; 6HR MAX TEMP:  64;

ONTARIO        PTCLDY    53  42  66 CALM      30.25S
6HR MIN TEMP:  52; 6HR MAX TEMP:  63;

RIVERSIDE      CLEAR     53  45  74 CALM      30.26S
6HR MIN TEMP:  53; 6HR MAX TEMP:  65;

PALM SPRINGS   CLEAR     53  27  36 NW3       30.25R
6HR MIN TEMP:  52; 6HR MAX TEMP:  66;

EL CENTRO NAS  CLEAR     50  21  32 CALM      30.23R
6HR MIN TEMP:  50; 6HR MAX TEMP:  68;

IMPERIAL       CLEAR     49  33  54 SW5       30.22R
6HR MIN TEMP:  49; 6HR MAX TEMP:  67;

BLYTHE         CLEAR     48  14  25 N6        30.23S
6HR MIN TEMP:  47; 6HR MAX TEMP:  64;

NEEDLES        CLOUDY    52  10  18 W5        30.25S
6HR MIN TEMP:  52; 6HR MAX TEMP:  61;

$$

NVZ020-UTZ003-090700-
SOUTHERN NEVADA-UTAH

CITY           SKY/WX    TMP DP  RH WIND       PRES   REMARKS
LAS VEGAS      MOCLDY    49   9  19 CALM      30.27R
6HR MIN TEMP:  49; 6HR MAX TEMP:  52;

SALT LAKE CITY CLOUDY    27  24  89 NW3       30.19R
6HR MIN TEMP:  26; 6HR MAX TEMP:  28;

$$

NMZ009-TXZ055-090700-
NEW MEXICO-WEST TEXAS

CITY           SKY/WX    TMP DP  RH WIND       PRES   REMARKS
ALBUQUERQUE    CLOUDY    28  18  66 CALM      30.37R
6HR MIN TEMP:  27; 6HR MAX TEMP:  37;

EL PASO        PTCLDY    31  24  75 CALM      30.45R
6HR MIN TEMP:  31; 6HR MAX TEMP:  39;

$$


........................KEY........................
SKY/WX - SKY CONDITION/WEATHER
TMP    - TEMPERATURE IN FAHRENHEIT
DP     - DEW POINT IN FAHRENHEIT
RH     - RELATIVE HUMIDITY IN PERCENT
WIND   - DIRECTION AND SPEED IN MILES PER HOUR (MPH)
VRB    - VARIABLE WIND DIRECTION
PRES   - MEAN SEA LEVEL PRESSURE IN INCHES OF MERCURY
         F - FALLING PRESSURE   R - RISING PRESSURE
         S - STEADY PRESSURE
VSB    - VISIBILITY IN MILES
HX     - HEAT INDEX IN FAHRENHEIT
WCI    - WIND CHILL INDEX IN FAHRENHEIT
TC     - TEMPERATURE IN CELSIUS WHICH IS ALSO KNOWN AS
         TEMPERATURE IN CENTIGRADE
AFB    - AIR FORCE BASE
         LUKE AFB IS LUKE AIR FORCE BASE
         DAVIS-MONTHAN IS DAVIS-MONTHAN AIR FORCE BASE
NAS    - NAVAL AIR STATION
         EL CENTRO NAS IS EL CENTRO NAVAL AIR STATION
N/A    - NOT AVAILABLE





USA.gov is the U.S. government's official web portal to all federal, state and local government web resources and services.